This is the latest recevied weather packets stored in our database for station/object NK7I. If no packets are shown the sender has not sent any weather packets the latest 10 day(s).
| Time | Temp. | Humidity | Pressure | Rain* | Wind** | Luminosity | Snow |
|---|---|---|---|---|---|---|---|
| 1777997784 | 15° C | 51% | 1014.5 hPa | 0 mm | - | 761 W/m² | - |
| 1777997483 | 15° C | 46% | 1014.5 hPa | 0 mm | - | 628 W/m² | - |
| 1777997183 | 14.44° C | 45% | 1014.6 hPa | 0 mm | - | 543 W/m² | - |
| 1777996883 | 14.44° C | 50% | 1014.7 hPa | 0 mm | - | 519 W/m² | - |
| 1777996583 | 14.44° C | 54% | 1014.7 hPa | 0 mm | - | 543 W/m² | - |
| 1777996283 | 13.89° C | 54% | 1014.8 hPa | 0 mm | - | 577 W/m² | - |
| 1777995983 | 13.89° C | 53% | 1014.8 hPa | 0 mm | - | 601 W/m² | - |
| 1777995683 | 13.33° C | 57% | 1014.7 hPa | 0 mm | - | 605 W/m² | - |
| 1777995383 | 13.33° C | 52% | 1014.8 hPa | 0 mm | - | 612 W/m² | - |
| 1777995083 | 13.33° C | 51% | 1014.8 hPa | 0 mm | - | 615 W/m² | - |
| 1777994784 | 13.33° C | 54% | 1014.8 hPa | 0 mm | - | 575 W/m² | - |
| 1777994483 | 12.78° C | 58% | 1014.8 hPa | 0 mm | - | 571 W/m² | - |
| 1777994183 | 12.22° C | 55% | 1014.9 hPa | 0 mm | - | 603 W/m² | - |
| 1777993884 | 12.22° C | 58% | 1014.9 hPa | 0 mm | - | 601 W/m² | - |
| 1777993583 | 11.67° C | 56% | 1014.7 hPa | 0 mm | - | 577 W/m² | - |
| 1777993284 | 11.11° C | 56% | 1014.8 hPa | 0 mm | - | 557 W/m² | - |
| 1777992983 | 10.56° C | 61% | 1014.7 hPa | 0 mm | - | 534 W/m² | - |
| 1777992683 | 10° C | 65% | 1014.7 hPa | 0 mm | - | 504 W/m² | - |
| 1777992383 | 10° C | 66% | 1014.6 hPa | 0 mm | - | 425 W/m² | - |
| 1777992083 | 9.44° C | 67% | 1014.6 hPa | 0 mm | - | 241 W/m² | - |
| 1777991783 | 9.44° C | 64% | 1014.5 hPa | 0 mm | - | 165 W/m² | - |
| 1777991483 | 9.44° C | 66% | 1014.5 hPa | 0 mm | - | 114 W/m² | - |
| 1777991183 | 8.89° C | 69% | 1014.5 hPa | 0 mm | - | 98 W/m² | - |
| 1777990883 | 8.33° C | 69% | 1014.5 hPa | 0 mm | - | 90 W/m² | - |
| 1777990583 | 8.33° C | 70% | 1014.5 hPa | 0 mm | - | 246 W/m² | - |
* Rain latest hour (hover to see other rain measurements)
** Current wind speed in m/s (hover to see current wind gust speed)